Weather Roundup
Issued by NWS Corpus Christi, TX

Home | Current Version | Previous Version | Text Only | Print | Product List | Glossary On
Versions: 1 2 3 4 5 6 7 8 9 10 11 12 13 14 15 16 17 18 19 20 21 22 23 24 25 26 27 28 29 30 31 32 33 34 35 36 37 38 39 40 41 42 43 44 45 46 47 48 49 50
000
ASUS44 KCRP 231210
HRRCRP

SOUTH TEXAS REGIONAL WEATHER ROUNDUP
NATIONAL WEATHER SERVICE CORPUS CHRISTI TX
700 AM CDT WED AUG 23 2017


TXZ229>244-231300-
...CORPUS CHRISTI AREA OBSERVATIONS...

CITY           SKY/WX    TMP DP  RH WIND       PRES   REMARKS
CORPUS CHRISTI PTCLDY    75  74  96 CALM      29.96R
NAS CORPUS CHR PTCLDY    80  78  94 CALM      29.96R
ROCKPORT       CLEAR     77  74  90 SW3       29.96R
KINGSVILLE ARP FAIR      73  73 100 CALM      29.97R
KINGSVILLE NAS PTCLDY    74  74 100 N5        29.97R
ALICE          CLEAR     74  72  93 CALM      29.97R
FALFURRIAS     CLEAR     73  72  96 CALM      29.96S
$$

...VICTORIA AREA OBSERVATIONS...

CITY           SKY/WX    TMP DP  RH WIND       PRES   REMARKS
PORT LAVACA    CLEAR     74  71  91 CALM      29.98S
VICTORIA       MOCLDY    73  71  93 N3        29.99R
BEEVILLE       FAIR     N/A N/A N/A CALM      29.98S HAZE
PLEASANTON     CLEAR     71  69  93 CALM      30.00R
SAN ANTONIO    PTCLDY    76  70  82 CALM      30.02R
$$

...LAREDO AREA OBSERVATIONS...

CITY           SKY/WX    TMP DP  RH WIND       PRES   REMARKS
LAREDO         CLEAR     77  72  84 SE7       29.98R
COTULLA        CLEAR     75  70  84 E3        29.98R
DEL RIO        CLEAR     78  67  68 E8        29.97S
MCALLEN        CLEAR     81  75  82 NE5       29.95S
HEBBRONVILLE   CLEAR     70  68  93 CALM      29.99S
$$

...OTHER TEXAS OBSERVATIONS...

CITY           SKY/WX    TMP DP  RH WIND       PRES   REMARKS
BROWNSVILLE    PTCLDY    77  77 100 N3        29.94S
HOUSTON        CLOUDY    77  74  90 NW3       29.99R
COL. STATION   PTCLDY    76  71  85 CALM      30.00R
AUSTIN         PTCLDY    72  70  93 S3        30.00R
WACO           MOCLDY    74  70  87 CALM      30.00S
FORT WORTH     CLOUDY    76  72  87 N3        30.01F
WICHITA FALLS  CLOUDY    72  70  93 NE10      30.06R
LUBBOCK        MOCLDY    66  63  90 N7        30.16R
EL PASO        MOCLDY    75  63  66 NE9       30.14R
$$

...MARINE OBSERVATIONS...

STATION/POSITION TIME  SKY/WX   TEMP    WIND        PRES    VSBY  WAVE   SWELL
                                AIR SEA DIR/SP/G                  HT/PER HT/PER
                 (UTC)          (F)     (DEG/KT/KT) (MB)    (MI)  (FT/S) (FT/S)
PORT ARANSAS     1200            83 85  120/  2/  2 1014.8R
BUOY 90 E PORT A 1050            84 85  110/  2/  4 1014.3          3/ 7   3/ 7
BUOY 45 SE BAFFI 1050            84     150/  4/  4 1013.0          3/ 7   3/ 7
BUOY 200 E PT IS 1050            85 88   50/  8/ 12 1013.6          3/ 5   2/ 5
BUOY 15 E GALVES 1050            85 87  190/  2/  4 1014.8          2/ 7   2/ 7
$$



USA.gov is the U.S. government's official web portal to all federal, state and local government web resources and services.